Torna al catalogo

NOAA 17 DEB

AttivoPO
NORAD 49487·DEBRIS·🇺🇸 United States

Lanciato Jun 24, 2002 da Vandenberg Space Force Base

Loading…

Prossimi Passaggi (prossime 24 ore)

TLE

AggiornatoSource: Space-Track

Epoca: Sep 14, 2026, 09:30 UTC

1 49487U 02032DR  26257.39606477  .00007528  00000-0  11838-2 0  9998
2 49487  98.8086 304.2643 0023832  24.4625 335.7706 14.72675201289911

Traccia NOAA 17 DEB in tempo reale con AllMySat

Download on the App Store